Wetterdaten: aktuell Dienstag, 07.12.2021 13:25
Datum Zeit Temp. 2m Temp. 5cm Feuchte A. Luftdruck Regen Wind Richtung Richtung Sonnenschein ET UV Solar Windben
07.12.2021 13:25 1,2 C 1,7 C 90 % 1009,2 hPa 0,0 l/m 9,7 km/h (2 Bft) SO 135 0 min 0,000 mm 0,0 UV-I 97 W/m 19,3 km/h (3 Bft)
07.12.2021 13:20 1,2 C 1,1 C 91 % 1009,3 hPa 0,0 l/m 9,7 km/h (2 Bft) SO 135 0 min 0,000 mm 0,0 UV-I 91 W/m 19,3 km/h (3 Bft)
07.12.2021 13:15 1,2 C 1,1 C 91 % 1009,3 hPa 0,0 l/m 8,0 km/h (2 Bft) S-SO 157 0 min 0,000 mm 0,0 UV-I 62 W/m 14,5 km/h (3 Bft)
07.12.2021 13:10 1,2 C 1,1 C 91 % 1009,2 hPa 0,0 l/m 6,4 km/h (2 Bft) S-SO 157 0 min 0,000 mm 0,0 UV-I 79 W/m 16,1 km/h (3 Bft)
07.12.2021 13:05 1,1 C 1,7 C 91 % 1009,1 hPa 0,0 l/m 8,0 km/h (2 Bft) SO 135 0 min 0,000 mm 0,0 UV-I 90 W/m 17,7 km/h (3 Bft)
07.12.2021 13:00 1,1 C 1,7 C 91 % 1009,0 hPa 0,0 l/m 12,9 km/h (3 Bft) SO 135 0 min 0,025 mm 0,0 UV-I 84 W/m 25,7 km/h (4 Bft)
07.12.2021 12:55 1,1 C 1,1 C 91 % 1009,2 hPa 0,0 l/m 9,7 km/h (2 Bft) SO 135 0 min 0,000 mm 0,0 UV-I 81 W/m 17,7 km/h (3 Bft)
07.12.2021 12:50 1,0 C 1,7 C 91 % 1009,1 hPa 0,0 l/m 14,5 km/h (3 Bft) SO 135 0 min 0,000 mm 0,0 UV-I 97 W/m 22,5 km/h (4 Bft)
07.12.2021 12:45 1,0 C 1,7 C 91 % 1009,1 hPa 0,0 l/m 9,7 km/h (2 Bft) SO 135 0 min 0,000 mm 0,0 UV-I 127 W/m 19,3 km/h (3 Bft)
07.12.2021 12:40 0,9 C 1,7 C 91 % 1009,1 hPa 0,0 l/m 8,0 km/h (2 Bft) SO 135 0 min 0,000 mm 0,0 UV-I 95 W/m 17,7 km/h (3 Bft)
07.12.2021 12:35 0,9 C 1,1 C 91 % 1009,3 hPa 0,0 l/m 11,3 km/h (2 Bft) S-SO 157 0 min 0,000 mm 0,0 UV-I 79 W/m 17,7 km/h (3 Bft)
07.12.2021 12:30 0,9 C 1,1 C 91 % 1009,4 hPa 0,0 l/m 8,0 km/h (2 Bft) S-SO 157 0 min 0,000 mm 0,0 UV-I 70 W/m 19,3 km/h (3 Bft)
07.12.2021 12:25 0,8 C 1,1 C 91 % 1009,3 hPa 0,0 l/m 9,7 km/h (2 Bft) S-SO 157 0 min 0,000 mm 0,0 UV-I 74 W/m 17,7 km/h (3 Bft)
07.12.2021 12:20 0,8 C 1,1 C 91 % 1009,3 hPa 0,0 l/m 11,3 km/h (2 Bft) SO 135 0 min 0,000 mm 0,0 UV-I 74 W/m 20,9 km/h (4 Bft)
07.12.2021 12:15 0,8 C 1,1 C 91 % 1009,4 hPa 0,0 l/m 9,7 km/h (2 Bft) S-SO 157 0 min 0,000 mm 0,0 UV-I 70 W/m 17,7 km/h (3 Bft)
07.12.2021 12:10 0,8 C 1,1 C 91 % 1009,4 hPa 0,0 l/m 11,3 km/h (2 Bft) S-SO 157 0 min 0,000 mm 0,0 UV-I 72 W/m 20,9 km/h (4 Bft)
07.12.2021 12:05 0,8 C 1,1 C 91 % 1009,3 hPa 0,0 l/m 8,0 km/h (2 Bft) S-SO 157 0 min 0,000 mm 0,0 UV-I 74 W/m 16,1 km/h (3 Bft)
07.12.2021 12:00 0,8 C 1,1 C 91 % 1009,4 hPa 0,2 l/m 8,0 km/h (2 Bft) SO 135 0 min 0,025 mm 0,0 UV-I 116 W/m 19,3 km/h (3 Bft)
07.12.2021 11:55 0,8 C 1,7 C 91 % 1009,2 hPa 0,0 l/m 9,7 km/h (2 Bft) SO 135 0 min 0,000 mm 0,0 UV-I 121 W/m 17,7 km/h (3 Bft)
07.12.2021 11:50 0,7 C 1,7 C 91 % 1009,1 hPa 0,0 l/m 9,7 km/h (2 Bft) SO 135 0 min 0,000 mm 0,0 UV-I 107 W/m 24,1 km/h (4 Bft)
07.12.2021 11:45 0,7 C 1,1 C 91 % 1009,2 hPa 0,0 l/m 11,3 km/h (2 Bft) SO 135 0 min 0,000 mm 0,0 UV-I 105 W/m 20,9 km/h (4 Bft)
07.12.2021 11:40 0,7 C 1,1 C 91 % 1009,2 hPa 0,0 l/m 9,7 km/h (2 Bft) SO 135 0 min 0,000 mm 0,0 UV-I 104 W/m 19,3 km/h (3 Bft)
07.12.2021 11:35 0,6 C 1,1 C 91 % 1009,4 hPa 0,0 l/m 9,7 km/h (2 Bft) SO 135 0 min 0,000 mm 0,0 UV-I 107 W/m 17,7 km/h (3 Bft)
07.12.2021 11:30 0,6 C 1,1 C 91 % 1009,4 hPa 0,0 l/m 11,3 km/h (2 Bft) SO 135 0 min 0,000 mm 0,0 UV-I 84 W/m 17,7 km/h (3 Bft)
07.12.2021 11:25 0,6 C 1,1 C 91 % 1009,5 hPa 0,0 l/m 11,3 km/h (2 Bft) SO 135 0 min 0,000 mm 0,0 UV-I 74 W/m 20,9 km/h (4 Bft)
07.12.2021 11:20 0,6 C 1,1 C 92 % 1009,5 hPa 0,0 l/m 9,7 km/h (2 Bft) SO 135 0 min 0,000 mm 0,0 UV-I 70 W/m 17,7 km/h (3 Bft)
07.12.2021 11:15 0,5 C 1,1 C 92 % 1009,6 hPa 0,0 l/m 9,7 km/h (2 Bft) S-SO 157 0 min 0,000 mm 0,0 UV-I 84 W/m 22,5 km/h (4 Bft)
07.12.2021 11:10 0,4 C 1,1 C 92 % 1009,5 hPa 0,0 l/m 8,0 km/h (2 Bft) S-SO 157 0 min 0,000 mm 0,0 UV-I 93 W/m 16,1 km/h (3 Bft)
07.12.2021 11:05 0,4 C 1,1 C 92 % 1009,5 hPa 0,0 l/m 8,0 km/h (2 Bft) SO 135 0 min 0,000 mm 0,0 UV-I 90 W/m 19,3 km/h (3 Bft)
07.12.2021 11:00 0,4 C 1,1 C 92 % 1009,6 hPa 0,0 l/m 11,3 km/h (2 Bft) SO 135 0 min 0,025 mm 0,0 UV-I 79 W/m 19,3 km/h (3 Bft)
07.12.2021 10:55 0,4 C 0,6 C 92 % 1009,6 hPa 0,0 l/m 9,7 km/h (2 Bft) S-SO 157 0 min 0,000 mm 0,0 UV-I 74 W/m 20,9 km/h (4 Bft)
07.12.2021 10:50 0,3 C 0,6 C 92 % 1009,7 hPa 0,0 l/m 9,7 km/h (2 Bft) SO 135 0 min 0,000 mm 0,0 UV-I 67 W/m 22,5 km/h (4 Bft)
07.12.2021 10:45 0,3 C 0,6 C 92 % 1009,7 hPa 0,0 l/m 6,4 km/h (2 Bft) SO 135 0 min 0,000 mm 0,0 UV-I 88 W/m 14,5 km/h (3 Bft)
07.12.2021 10:40 0,3 C 0,6 C 92 % 1009,6 hPa 0,0 l/m 9,7 km/h (2 Bft) SO 135 0 min 0,000 mm 0,0 UV-I 91 W/m 19,3 km/h (3 Bft)
07.12.2021 10:35 0,3 C 0,6 C 92 % 1009,7 hPa 0,0 l/m 9,7 km/h (2 Bft) SO 135 0 min 0,000 mm 0,0 UV-I 74 W/m 19,3 km/h (3 Bft)
07.12.2021 10:30 0,2 C 0,6 C 92 % 1009,7 hPa 0,0 l/m 9,7 km/h (2 Bft) SO 135 0 min 0,000 mm 0,0 UV-I 49 W/m 16,1 km/h (3 Bft)
07.12.2021 10:25 0,2 C 0,6 C 92 % 1009,7 hPa 0,0 l/m 8,0 km/h (2 Bft) SO 135 0 min 0,000 mm 0,0 UV-I 47 W/m 16,1 km/h (3 Bft)
07.12.2021 10:20 0,2 C 0,6 C 92 % 1009,7 hPa 0,0 l/m 6,4 km/h (2 Bft) SO 135 0 min 0,000 mm 0,0 UV-I 49 W/m 12,9 km/h (3 Bft)
07.12.2021 10:15 0,2 C 0,6 C 92 % 1009,5 hPa 0,0 l/m 8,0 km/h (2 Bft) SO 135 0 min 0,000 mm 0,0 UV-I 46 W/m 16,1 km/h (3 Bft)
07.12.2021 10:10 0,2 C 0,6 C 91 % 1009,5 hPa 0,0 l/m 8,0 km/h (2 Bft) SO 135 0 min 0,000 mm 0,0 UV-I 46 W/m 16,1 km/h (3 Bft)
07.12.2021 10:05 0,2 C 0,0 C 91 % 1009,4 hPa 0,0 l/m 8,0 km/h (2 Bft) SO 135 0 min 0,000 mm 0,0 UV-I 40 W/m 14,5 km/h (3 Bft)
07.12.2021 10:00 0,1 C 0,6 C 91 % 1009,4 hPa 0,0 l/m 6,4 km/h (2 Bft) SO 135 0 min 0,000 mm 0,0 UV-I 40 W/m 12,9 km/h (3 Bft)
07.12.2021 09:55 0,1 C 0,6 C 91 % 1009,4 hPa 0,0 l/m 6,4 km/h (2 Bft) S-SO 157 0 min 0,000 mm 0,0 UV-I 33 W/m 16,1 km/h (3 Bft)
07.12.2021 09:50 0,1 C 0,0 C 92 % 1009,3 hPa 0,0 l/m 8,0 km/h (2 Bft) SO 135 0 min 0,000 mm 0,0 UV-I 32 W/m 19,3 km/h (3 Bft)
07.12.2021 09:45 0,1 C 0,0 C 92 % 1009,3 hPa 0,0 l/m 9,7 km/h (2 Bft) SO 135 0 min 0,000 mm 0,0 UV-I 26 W/m 19,3 km/h (3 Bft)
07.12.2021 09:40 0,1 C 0,0 C 92 % 1009,3 hPa 0,0 l/m 8,0 km/h (2 Bft) SO 135 0 min 0,000 mm 0,0 UV-I 23 W/m 19,3 km/h (3 Bft)
07.12.2021 09:35 0,1 C 0,0 C 92 % 1009,3 hPa 0,0 l/m 8,0 km/h (2 Bft) SO 135 0 min 0,000 mm 0,0 UV-I 18 W/m 22,5 km/h (4 Bft)
07.12.2021 09:30 0,1 C 0,0 C 92 % 1009,3 hPa 0,0 l/m 9,7 km/h (2 Bft) SO 135 0 min 0,000 mm 0,0 UV-I 16 W/m 19,3 km/h (3 Bft)
07.12.2021 09:25 0,1 C 0,0 C 92 % 1009,2 hPa 0,0 l/m 9,7 km/h (2 Bft) SO 135 0 min 0,000 mm 0,0 UV-I 16 W/m 19,3 km/h (3 Bft)
07.12.2021 09:20 0,0 C 0,0 C 92 % 1009,2 hPa 0,0 l/m 9,7 km/h (2 Bft) SO 135 0 min 0,000 mm 0,0 UV-I 16 W/m 16,1 km/h (3 Bft)
07.12.2021 09:15 0,0 C 0,0 C 92 % 1009,2 hPa 0,0 l/m 8,0 km/h (2 Bft) SO 135 0 min 0,000 mm 0,0 UV-I 14 W/m 17,7 km/h (3 Bft)
07.12.2021 09:10 0,0 C 0,0 C 92 % 1009,1 hPa 0,0 l/m 6,4 km/h (2 Bft) SO 135 0 min 0,000 mm 0,0 UV-I 12 W/m 16,1 km/h (3 Bft)
07.12.2021 09:05 0,0 C 0,0 C 92 % 1009,1 hPa 0,0 l/m 6,4 km/h (2 Bft) SO 135 0 min 0,000 mm 0,0 UV-I 11 W/m 14,5 km/h (3 Bft)
07.12.2021 09:00 0,0 C 0,0 C 92 % 1009,1 hPa 0,0 l/m 8,0 km/h (2 Bft) SO 135 0 min 0,000 mm 0,0 UV-I 9 W/m 17,7 km/h (3 Bft)
07.12.2021 08:55 0,0 C 0,0 C 92 % 1009,1 hPa 0,0 l/m 9,7 km/h (2 Bft) SO 135 0 min 0,000 mm 0,0 UV-I 7 W/m 19,3 km/h (3 Bft)
07.12.2021 08:50 -0,1 C 0,0 C 92 % 1009,1 hPa 0,0 l/m 11,3 km/h (2 Bft) SO 135 0 min 0,000 mm 0,0 UV-I 7 W/m 19,3 km/h (3 Bft)
07.12.2021 08:45 -0,1 C 0,0 C 92 % 1009,1 hPa 0,0 l/m 6,4 km/h (2 Bft) SO 135 0 min 0,000 mm 0,0 UV-I 5 W/m 16,1 km/h (3 Bft)
07.12.2021 08:40 -0,1 C 0,0 C 92 % 1009,1 hPa 0,0 l/m 9,7 km/h (2 Bft) SO 135 0 min 0,000 mm 0,0 UV-I 5 W/m 17,7 km/h (3 Bft)
07.12.2021 08:35 -0,1 C 0,0 C 92 % 1009,0 hPa 0,0 l/m 8,0 km/h (2 Bft) SO 135 0 min 0,000 mm 0,0 UV-I 0 W/m 20,9 km/h (4 Bft)
07.12.2021 08:30 -0,1 C 0,0 C 92 % 1009,0 hPa 0,0 l/m 6,4 km/h (2 Bft) SO 135 0 min 0,000 mm 0,0 UV-I 0 W/m 12,9 km/h (3 Bft)
07.12.2021 08:25 -0,1 C 0,0 C 92 % 1009,0 hPa 0,0 l/m 8,0 km/h (2 Bft) S-SO 157 0 min 0,000 mm 0,0 UV-I 0 W/m 16,1 km/h (3 Bft)
07.12.2021 08:20 -0,1 C 0,0 C 92 % 1009,0 hPa 0,0 l/m 8,0 km/h (2 Bft) SO 135 0 min 0,000 mm 0,0 UV-I 0 W/m 16,1 km/h (3 Bft)
07.12.2021 08:15 -0,1 C 0,0 C 92 % 1008,9 hPa 0,0 l/m 8,0 km/h (2 Bft) SO 135 0 min 0,000 mm 0,0 UV-I 0 W/m 17,7 km/h (3 Bft)
07.12.2021 08:10 -0,1 C 0,0 C 92 % 1008,9 hPa 0,0 l/m 9,7 km/h (2 Bft) SO 135 0 min 0,000 mm 0,0 UV-I 0 W/m 20,9 km/h (4 Bft)
07.12.2021 08:05 -0,1 C -0,6 C 92 % 1008,8 hPa 0,0 l/m 8,0 km/h (2 Bft) SO 135 0 min 0,000 mm 0,0 UV-I 0 W/m 20,9 km/h (4 Bft)
07.12.2021 08:00 -0,1 C -0,6 C 92 % 1008,7 hPa 0,0 l/m 8,0 km/h (2 Bft) SO 135 0 min 0,000 mm 0,0 UV-I 0 W/m 17,7 km/h (3 Bft)
07.12.2021 07:55 -0,1 C -0,6 C 92 % 1008,6 hPa 0,0 l/m 4,8 km/h (1 Bft) SO 135 0 min 0,000 mm 0,0 UV-I 0 W/m 11,3 km/h (2 Bft)
07.12.2021 07:50 -0,1 C -0,6 C 92 % 1008,6 hPa 0,0 l/m 9,7 km/h (2 Bft) SO 135 0 min 0,000 mm 0,0 UV-I 0 W/m 20,9 km/h (4 Bft)
07.12.2021 07:45 -0,1 C -0,6 C 92 % 1008,6 hPa 0,0 l/m 9,7 km/h (2 Bft) SO 135 0 min 0,000 mm 0,0 UV-I 0 W/m 17,7 km/h (3 Bft)
07.12.2021 07:40 -0,1 C -0,6 C 92 % 1008,6 hPa 0,0 l/m 11,3 km/h (2 Bft) SO 135 0 min 0,000 mm 0,0 UV-I 0 W/m 20,9 km/h (4 Bft)
07.12.2021 07:35 -0,1 C -0,6 C 92 % 1008,6 hPa 0,0 l/m 6,4 km/h (2 Bft) SO 135 0 min 0,000 mm 0,0 UV-I 0 W/m 14,5 km/h (3 Bft)
07.12.2021 07:30 -0,1 C -0,6 C 92 % 1008,5 hPa 0,0 l/m 11,3 km/h (2 Bft) SO 135 0 min 0,000 mm 0,0 UV-I 0 W/m 19,3 km/h (3 Bft)
07.12.2021 07:25 -0,1 C 0,0 C 92 % 1008,4 hPa 0,0 l/m 8,0 km/h (2 Bft) SO 135 0 min 0,000 mm 0,0 UV-I 0 W/m 16,1 km/h (3 Bft)
07.12.2021 07:20 -0,1 C 0,0 C 92 % 1008,4 hPa 0,0 l/m 8,0 km/h (2 Bft) SO 135 0 min 0,000 mm 0,0 UV-I 0 W/m 16,1 km/h (3 Bft)
07.12.2021 07:15 -0,1 C 0,0 C 92 % 1008,4 hPa 0,0 l/m 9,7 km/h (2 Bft) SO 135 0 min 0,000 mm 0,0 UV-I 0 W/m 16,1 km/h (3 Bft)
07.12.2021 07:10 -0,1 C 0,0 C 92 % 1008,3 hPa 0,0 l/m 8,0 km/h (2 Bft) SO 135 0 min 0,000 mm 0,0 UV-I 0 W/m 17,7 km/h (3 Bft)
07.12.2021 07:05 -0,1 C -0,6 C 92 % 1008,2 hPa 0,0 l/m 8,0 km/h (2 Bft) SO 135 0 min 0,000 mm 0,0 UV-I 0 W/m 19,3 km/h (3 Bft)
07.12.2021 07:00 -0,1 C -0,6 C 92 % 1008,2 hPa 0,0 l/m 8,0 km/h (2 Bft) SO 135 0 min 0,000 mm 0,0 UV-I 0 W/m 17,7 km/h (3 Bft)
07.12.2021 06:55 -0,1 C -0,6 C 92 % 1008,2 hPa 0,0 l/m 8,0 km/h (2 Bft) SO 135 0 min 0,000 mm 0,0 UV-I 0 W/m 17,7 km/h (3 Bft)
07.12.2021 06:50 -0,1 C -0,6 C 92 % 1008,1 hPa 0,0 l/m 9,7 km/h (2 Bft) SO 135 0 min 0,000 mm 0,0 UV-I 0 W/m 17,7 km/h (3 Bft)
07.12.2021 06:45 -0,1 C -0,6 C 92 % 1008,1 hPa 0,0 l/m 9,7 km/h (2 Bft) SO 135 0 min 0,000 mm 0,0 UV-I 0 W/m 19,3 km/h (3 Bft)
07.12.2021 06:40 -0,1 C -0,6 C 92 % 1008,1 hPa 0,0 l/m 11,3 km/h (2 Bft) SO 135 0 min 0,000 mm 0,0 UV-I 0 W/m 25,7 km/h (4 Bft)
07.12.2021 06:35 -0,1 C -0,6 C 92 % 1008,1 hPa 0,0 l/m 9,7 km/h (2 Bft) SO 135 0 min 0,000 mm 0,0 UV-I 0 W/m 20,9 km/h (4 Bft)
07.12.2021 06:30 -0,1 C -0,6 C 92 % 1008,1 hPa 0,0 l/m 9,7 km/h (2 Bft) SO 135 0 min 0,000 mm 0,0 UV-I 0 W/m 24,1 km/h (4 Bft)
07.12.2021 06:25 -0,1 C -0,6 C 92 % 1008,1 hPa 0,0 l/m 9,7 km/h (2 Bft) SO 135 0 min 0,000 mm 0,0 UV-I 0 W/m 17,7 km/h (3 Bft)
07.12.2021 06:20 -0,1 C -0,6 C 92 % 1008,1 hPa 0,0 l/m 8,0 km/h (2 Bft) SO 135 0 min 0,000 mm 0,0 UV-I 0 W/m 16,1 km/h (3 Bft)
07.12.2021 06:15 -0,2 C -0,6 C 92 % 1008,2 hPa 0,0 l/m 8,0 km/h (2 Bft) SO 135 0 min 0,000 mm 0,0 UV-I 0 W/m 14,5 km/h (3 Bft)
07.12.2021 06:10 -0,2 C -0,6 C 92 % 1008,2 hPa 0,0 l/m 8,0 km/h (2 Bft) SO 135 0 min 0,000 mm 0,0 UV-I 0 W/m 16,1 km/h (3 Bft)
07.12.2021 06:05 -0,2 C -0,6 C 92 % 1008,2 hPa 0,0 l/m 9,7 km/h (2 Bft) SO 135 0 min 0,000 mm 0,0 UV-I 0 W/m 20,9 km/h (4 Bft)
07.12.2021 06:00 -0,2 C -0,6 C 92 % 1008,2 hPa 0,0 l/m 9,7 km/h (2 Bft) SO 135 0 min 0,000 mm 0,0 UV-I 0 W/m 19,3 km/h (3 Bft)
07.12.2021 05:55 -0,2 C -0,6 C 92 % 1008,2 hPa 0,0 l/m 9,7 km/h (2 Bft) SO 135 0 min 0,000 mm 0,0 UV-I 0 W/m 20,9 km/h (4 Bft)
07.12.2021 05:50 -0,2 C -0,6 C 92 % 1008,1 hPa 0,0 l/m 9,7 km/h (2 Bft) SO 135 0 min 0,000 mm 0,0 UV-I 0 W/m 17,7 km/h (3 Bft)
07.12.2021 05:45 -0,3 C -0,6 C 92 % 1008,1 hPa 0,0 l/m 11,3 km/h (2 Bft) SO 135 0 min 0,000 mm 0,0 UV-I 0 W/m 24,1 km/h (4 Bft)
07.12.2021 05:40 -0,3 C -0,6 C 92 % 1008,1 hPa 0,0 l/m 8,0 km/h (2 Bft) SO 135 0 min 0,000 mm 0,0 UV-I 0 W/m 16,1 km/h (3 Bft)
07.12.2021 05:35 -0,3 C -0,6 C 92 % 1008,2 hPa 0,0 l/m 9,7 km/h (2 Bft) SO 135 0 min 0,000 mm 0,0 UV-I 0 W/m 19,3 km/h (3 Bft)
07.12.2021 05:30 -0,3 C -0,6 C 92 % 1008,2 hPa 0,0 l/m 11,3 km/h (2 Bft) SO 135 0 min 0,000 mm 0,0 UV-I 0 W/m 22,5 km/h (4 Bft)
07.12.2021 05:25 -0,3 C -0,6 C 92 % 1008,1 hPa 0,0 l/m 9,7 km/h (2 Bft) SO 135 0 min 0,000 mm 0,0 UV-I 0 W/m 19,3 km/h (3 Bft)
07.12.2021 05:20 -0,3 C -0,6 C 92 % 1008,1 hPa 0,0 l/m 8,0 km/h (2 Bft) SO 135 0 min 0,000 mm 0,0 UV-I 0 W/m 16,1 km/h (3 Bft)
07.12.2021 05:15 -0,4 C -0,6 C 92 % 1008,1 hPa 0,0 l/m 9,7 km/h (2 Bft) SO 135 0 min 0,000 mm 0,0 UV-I 0 W/m 19,3 km/h (3 Bft)
07.12.2021 05:10 -0,4 C -0,6 C 92 % 1008,0 hPa 0,0 l/m 8,0 km/h (2 Bft) SO 135 0 min 0,000 mm 0,0 UV-I 0 W/m 17,7 km/h (3 Bft)
07.12.2021 05:05 -0,4 C -0,6 C 92 % 1008,1 hPa 0,0 l/m 8,0 km/h (2 Bft) SO 135 0 min 0,000 mm 0,0 UV-I 0 W/m 17,7 km/h (3 Bft)
07.12.2021 05:00 -0,4 C -0,6 C 92 % 1008,1 hPa 0,0 l/m 9,7 km/h (2 Bft) SO 135 0 min 0,000 mm 0,0 UV-I 0 W/m 20,9 km/h (4 Bft)
07.12.2021 04:55 -0,5 C -0,6 C 92 % 1008,1 hPa 0,0 l/m 8,0 km/h (2 Bft) SO 135 0 min 0,000 mm 0,0 UV-I 0 W/m 17,7 km/h (3 Bft)
07.12.2021 04:50 -0,5 C -1,1 C 92 % 1008,0 hPa 0,0 l/m 9,7 km/h (2 Bft) SO 135 0 min 0,000 mm 0,0 UV-I 0 W/m 20,9 km/h (4 Bft)
07.12.2021 04:45 -0,6 C -1,1 C 92 % 1008,0 hPa 0,0 l/m 9,7 km/h (2 Bft) SO 135 0 min 0,000 mm 0,0 UV-I 0 W/m 16,1 km/h (3 Bft)
07.12.2021 04:40 -0,6 C -1,1 C 92 % 1008,0 hPa 0,0 l/m 9,7 km/h (2 Bft) SO 135 0 min 0,000 mm 0,0 UV-I 0 W/m 19,3 km/h (3 Bft)
07.12.2021 04:35 -0,6 C -1,1 C 92 % 1007,9 hPa 0,0 l/m 9,7 km/h (2 Bft) SO 135 0 min 0,000 mm 0,0 UV-I 0 W/m 19,3 km/h (3 Bft)
07.12.2021 04:30 -0,6 C -1,1 C 92 % 1008,0 hPa 0,0 l/m 9,7 km/h (2 Bft) SO 135 0 min 0,000 mm 0,0 UV-I 0 W/m 17,7 km/h (3 Bft)
07.12.2021 04:25 -0,6 C -1,1 C 92 % 1008,0 hPa 0,0 l/m 8,0 km/h (2 Bft) SO 135 0 min 0,000 mm 0,0 UV-I 0 W/m 20,9 km/h (4 Bft)
07.12.2021 04:20 -0,6 C -1,7 C 92 % 1008,0 hPa 0,0 l/m 9,7 km/h (2 Bft) SO 135 0 min 0,000 mm 0,0 UV-I 0 W/m 19,3 km/h (3 Bft)
07.12.2021 04:15 -0,6 C -1,7 C 92 % 1007,9 hPa 0,0 l/m 9,7 km/h (2 Bft) SO 135 0 min 0,000 mm 0,0 UV-I 0 W/m 22,5 km/h (4 Bft)
07.12.2021 04:10 -0,6 C -1,7 C 92 % 1007,9 hPa 0,0 l/m 11,3 km/h (2 Bft) SO 135 0 min 0,000 mm 0,0 UV-I 0 W/m 19,3 km/h (3 Bft)
07.12.2021 04:05 -0,6 C -1,7 C 92 % 1007,8 hPa 0,0 l/m 9,7 km/h (2 Bft) SO 135 0 min 0,000 mm 0,0 UV-I 0 W/m 16,1 km/h (3 Bft)
07.12.2021 04:00 -0,6 C -1,7 C 92 % 1007,8 hPa 0,0 l/m 9,7 km/h (2 Bft) SO 135 0 min 0,000 mm 0,0 UV-I 0 W/m 14,5 km/h (3 Bft)
07.12.2021 03:55 -0,6 C -1,7 C 92 % 1007,8 hPa 0,0 l/m 8,0 km/h (2 Bft) SO 135 0 min 0,000 mm 0,0 UV-I 0 W/m 17,7 km/h (3 Bft)
07.12.2021 03:50 -0,6 C -1,7 C 92 % 1007,8 hPa 0,0 l/m 8,0 km/h (2 Bft) SO 135 0 min 0,000 mm 0,0 UV-I 0 W/m 17,7 km/h (3 Bft)
07.12.2021 03:45 -0,5 C -1,7 C 92 % 1007,8 hPa 0,0 l/m 9,7 km/h (2 Bft) SO 135 0 min 0,000 mm 0,0 UV-I 0 W/m 17,7 km/h (3 Bft)
07.12.2021 03:40 -0,5 C -1,7 C 92 % 1007,8 hPa 0,0 l/m 6,4 km/h (2 Bft) SO 135 0 min 0,000 mm 0,0 UV-I 0 W/m 16,1 km/h (3 Bft)
07.12.2021 03:35 -0,5 C -1,7 C 92 % 1007,7 hPa 0,0 l/m 8,0 km/h (2 Bft) SO 135 0 min 0,000 mm 0,0 UV-I 0 W/m 16,1 km/h (3 Bft)
07.12.2021 03:30 -0,4 C -1,1 C 92 % 1007,7 hPa 0,0 l/m 9,7 km/h (2 Bft) SO 135 0 min 0,000 mm 0,0 UV-I 0 W/m 19,3 km/h (3 Bft)
07.12.2021 03:25 -0,4 C -1,1 C 92 % 1007,6 hPa 0,0 l/m 9,7 km/h (2 Bft) SO 135 0 min 0,000 mm 0,0 UV-I 0 W/m 17,7 km/h (3 Bft)
07.12.2021 03:20 -0,4 C -1,1 C 92 % 1007,6 hPa 0,0 l/m 9,7 km/h (2 Bft) SO 135 0 min 0,000 mm 0,0 UV-I 0 W/m 17,7 km/h (3 Bft)
07.12.2021 03:15 -0,4 C -1,1 C 92 % 1007,7 hPa 0,0 l/m 9,7 km/h (2 Bft) SO 135 0 min 0,000 mm 0,0 UV-I 0 W/m 19,3 km/h (3 Bft)
07.12.2021 03:10 -0,4 C -1,1 C 92 % 1007,6 hPa 0,0 l/m 9,7 km/h (2 Bft) SO 135 0 min 0,000 mm 0,0 UV-I 0 W/m 22,5 km/h (4 Bft)
07.12.2021 03:05 -0,4 C -1,1 C 92 % 1007,6 hPa 0,0 l/m 9,7 km/h (2 Bft) SO 135 0 min 0,000 mm 0,0 UV-I 0 W/m 17,7 km/h (3 Bft)
07.12.2021 03:00 -0,4 C -1,1 C 92 % 1007,7 hPa 0,0 l/m 11,3 km/h (2 Bft) SO 135 0 min 0,000 mm 0,0 UV-I 0 W/m 20,9 km/h (4 Bft)
07.12.2021 02:55 -0,4 C -1,1 C 92 % 1007,7 hPa 0,0 l/m 11,3 km/h (2 Bft) SO 135 0 min 0,000 mm 0,0 UV-I 0 W/m 27,4 km/h (4 Bft)
07.12.2021 02:50 -0,4 C -1,1 C 92 % 1007,7 hPa 0,0 l/m 11,3 km/h (2 Bft) SO 135 0 min 0,000 mm 0,0 UV-I 0 W/m 20,9 km/h (4 Bft)
07.12.2021 02:45 -0,4 C -1,1 C 92 % 1007,7 hPa 0,0 l/m 12,9 km/h (3 Bft) SO 135 0 min 0,000 mm 0,0 UV-I 0 W/m 20,9 km/h (4 Bft)
07.12.2021 02:40 -0,4 C -1,1 C 92 % 1007,7 hPa 0,0 l/m 9,7 km/h (2 Bft) S-SO 157 0 min 0,000 mm 0,0 UV-I 0 W/m 16,1 km/h (3 Bft)
07.12.2021 02:35 -0,4 C -1,1 C 92 % 1007,8 hPa 0,0 l/m 9,7 km/h (2 Bft) SO 135 0 min 0,000 mm 0,0 UV-I 0 W/m 24,1 km/h (4 Bft)
07.12.2021 02:30 -0,3 C -1,1 C 92 % 1007,8 hPa 0,0 l/m 11,3 km/h (2 Bft) SO 135 0 min 0,000 mm 0,0 UV-I 0 W/m 22,5 km/h (4 Bft)
07.12.2021 02:25 -0,3 C -1,1 C 92 % 1007,7 hPa 0,0 l/m 11,3 km/h (2 Bft) SO 135 0 min 0,000 mm 0,0 UV-I 0 W/m 19,3 km/h (3 Bft)
07.12.2021 02:20 -0,3 C -1,1 C 92 % 1007,9 hPa 0,0 l/m 11,3 km/h (2 Bft) SO 135 0 min 0,000 mm 0,0 UV-I 0 W/m 19,3 km/h (3 Bft)
07.12.2021 02:15 -0,3 C -1,1 C 92 % 1007,9 hPa 0,0 l/m 9,7 km/h (2 Bft) SO 135 0 min 0,000 mm 0,0 UV-I 0 W/m 19,3 km/h (3 Bft)
07.12.2021 02:10 -0,3 C -1,1 C 92 % 1007,8 hPa 0,0 l/m 9,7 km/h (2 Bft) SO 135 0 min 0,000 mm 0,0 UV-I 0 W/m 19,3 km/h (3 Bft)
07.12.2021 02:05 -0,3 C -1,1 C 92 % 1007,9 hPa 0,0 l/m 9,7 km/h (2 Bft) SO 135 0 min 0,000 mm 0,0 UV-I 0 W/m 19,3 km/h (3 Bft)
07.12.2021 02:00 -0,3 C -1,1 C 91 % 1007,9 hPa 0,0 l/m 8,0 km/h (2 Bft) SO 135 0 min 0,000 mm 0,0 UV-I 0 W/m 16,1 km/h (3 Bft)
07.12.2021 01:55 -0,3 C -1,1 C 91 % 1007,9 hPa 0,0 l/m 9,7 km/h (2 Bft) SO 135 0 min 0,000 mm 0,0 UV-I 0 W/m 20,9 km/h (4 Bft)
07.12.2021 01:50 -0,3 C -1,1 C 91 % 1007,9 hPa 0,0 l/m 8,0 km/h (2 Bft) SO 135 0 min 0,000 mm 0,0 UV-I 0 W/m 24,1 km/h (4 Bft)
07.12.2021 01:45 -0,3 C -1,1 C 91 % 1007,9 hPa 0,0 l/m 9,7 km/h (2 Bft) SO 135 0 min 0,000 mm 0,0 UV-I 0 W/m 24,1 km/h (4 Bft)
07.12.2021 01:40 -0,3 C -1,1 C 91 % 1008,0 hPa 0,0 l/m 9,7 km/h (2 Bft) SO 135 0 min 0,000 mm 0,0 UV-I 0 W/m 17,7 km/h (3 Bft)
07.12.2021 01:35 -0,3 C -1,1 C 91 % 1008,0 hPa 0,0 l/m 9,7 km/h (2 Bft) SO 135 0 min 0,000 mm 0,0 UV-I 0 W/m 22,5 km/h (4 Bft)
07.12.2021 01:30 -0,3 C -1,1 C 91 % 1008,1 hPa 0,0 l/m 8,0 km/h (2 Bft) SO 135 0 min 0,000 mm 0,0 UV-I 0 W/m 17,7 km/h (3 Bft)
07.12.2021 01:25 -0,3 C -1,1 C 91 % 1008,2 hPa 0,0 l/m 9,7 km/h (2 Bft) S-SO 157 0 min 0,000 mm 0,0 UV-I 0 W/m 20,9 km/h (4 Bft)
07.12.2021 01:20 -0,2 C -1,1 C 91 % 1008,3 hPa 0,0 l/m 9,7 km/h (2 Bft) SO 135 0 min 0,000 mm 0,0 UV-I 0 W/m 17,7 km/h (3 Bft)
07.12.2021 01:15 -0,2 C -1,1 C 91 % 1008,4 hPa 0,0 l/m 11,3 km/h (2 Bft) SO 135 0 min 0,000 mm 0,0 UV-I 0 W/m 20,9 km/h (4 Bft)
07.12.2021 01:10 -0,2 C -1,1 C 91 % 1008,4 hPa 0,0 l/m 11,3 km/h (2 Bft) SO 135 0 min 0,000 mm 0,0 UV-I 0 W/m 19,3 km/h (3 Bft)
07.12.2021 01:05 -0,2 C -1,1 C 91 % 1008,5 hPa 0,0 l/m 11,3 km/h (2 Bft) SO 135 0 min 0,000 mm 0,0 UV-I 0 W/m 24,1 km/h (4 Bft)
07.12.2021 01:00 -0,2 C -1,1 C 91 % 1008,6 hPa 0,0 l/m 11,3 km/h (2 Bft) SO 135 0 min 0,000 mm 0,0 UV-I 0 W/m 22,5 km/h (4 Bft)
07.12.2021 00:55 -0,2 C -1,1 C 91 % 1008,6 hPa 0,0 l/m 8,0 km/h (2 Bft) SO 135 0 min 0,000 mm 0,0 UV-I 0 W/m 17,7 km/h (3 Bft)
07.12.2021 00:50 -0,2 C -1,1 C 91 % 1008,6 hPa 0,0 l/m 11,3 km/h (2 Bft) SO 135 0 min 0,000 mm 0,0 UV-I 0 W/m 22,5 km/h (4 Bft)
07.12.2021 00:45 -0,2 C -1,1 C 91 % 1008,6 hPa 0,0 l/m 11,3 km/h (2 Bft) SO 135 0 min 0,000 mm 0,0 UV-I 0 W/m 20,9 km/h (4 Bft)
07.12.2021 00:40 -0,1 C -1,1 C 91 % 1008,5 hPa 0,0 l/m 11,3 km/h (2 Bft) SO 135 0 min 0,000 mm 0,0 UV-I 0 W/m 22,5 km/h (4 Bft)
07.12.2021 00:35 -0,1 C -1,1 C 91 % 1008,8 hPa 0,0 l/m 9,7 km/h (2 Bft) SO 135 0 min 0,000 mm 0,0 UV-I 0 W/m 24,1 km/h (4 Bft)
07.12.2021 00:30 -0,1 C -1,1 C 91 % 1008,8 hPa 0,0 l/m 9,7 km/h (2 Bft) S-SO 157 0 min 0,000 mm 0,0 UV-I 0 W/m 20,9 km/h (4 Bft)
07.12.2021 00:25 -0,1 C -0,6 C 91 % 1008,8 hPa 0,0 l/m 9,7 km/h (2 Bft) S-SO 157 0 min 0,000 mm 0,0 UV-I 0 W/m 17,7 km/h (3 Bft)
07.12.2021 00:20 -0,1 C -0,6 C 91 % 1009,0 hPa 0,0 l/m 12,9 km/h (3 Bft) SO 135 0 min 0,000 mm 0,0 UV-I 0 W/m 27,4 km/h (4 Bft)
07.12.2021 00:15 -0,1 C -1,1 C 91 % 1009,0 hPa 0,0 l/m 9,7 km/h (2 Bft) S-SO 157 0 min 0,000 mm 0,0 UV-I 0 W/m 20,9 km/h (4 Bft)
07.12.2021 00:10 -0,1 C -1,1 C 91 % 1009,0 hPa 0,0 l/m 11,3 km/h (2 Bft) SO 135 0 min 0,000 mm 0,0 UV-I 0 W/m 22,5 km/h (4 Bft)
07.12.2021 00:05 -0,1 C -1,1 C 91 % 1009,0 hPa 0,0 l/m 9,7 km/h (2 Bft) S-SO 157 0 min 0,000 mm 0,0 UV-I 0 W/m 27,4 km/h (4 Bft)
07.12.2021 00:00 -0,1 C -1,1 C 91 % 1009,0 hPa 0,0 l/m 11,3 km/h (2 Bft) SO 135 0 min 0,000 mm 0,0 UV-I 0 W/m 20,9 km/h (4 Bft)
_ Min-Zeit 04:10 03:35 13:25 03:05 - 07:55 - - - - - - 07:55
Minimum _ -0,7 C -1,7 C 90 % 1007,6 hPa - 4,8 km/h (1 Bft) - - - - - - 11,3 km/h (2 Bft)
_ Max-Zeit 13:10 11:50 02:05 10:20 12:00 12:50 - - 00:00 11:00 00:00 12:45 00:05
Maximum _ 1,2 C 1,7 C 92 % 1009,7 hPa 0,2 l/m 14,5 km/h
SO (3 Bft)
- - 0 min 0,025 mm 0,0 UV-I 127 W/m 27,4 km/h
SO (4 Bft)
Durchschnitt _ -0,0 C -0,3 C 92 % 1008,6 hPa #0,2 l/m 9,3 km/h (2 Bft) SO - #0 min. #0,075 mm 0,0 UV-I 62 W/m 19,0 km/h (3 Bft)